Content
SEND FEEDBACK

Daily
Averages
Monthly
Summary
United States of America

CHICAGO, ILLINOIS


Home > North America > United States > Illinois
Elevation: 674 feet     Latitude: 41 59N     Longitude: 087 54W

WEATHER
 
SELECT A DAY
Number of Records: 195,162;   Date Range: 7/8/95 - 9/21/14
 
SHARE

PRINT THIS DATA

[ ← Previous Day ]
WEATHER ALMANAC - MAY 4, 2013
[ Next Day → ]
[ °C ]   °F
Weather ElementAverageHighLow
Temperature56.2 °F66 °F (2:52 pm)46.9 °F (2:52 am)
Dewpoint44.8 °F48 °F (2:52 pm)41 °F (10:52 pm)
Humidity66.8 %90 % (2:52 am)50 % (3:52 pm)
Barometer30.02 in30.07 in (9:52 pm)29.98 in (2:52 am)
Wind Speed5.6 mph11.5 mph (3:52 pm)
Wind Gust19.6 mph (3:52 pm)
Weather ElementAverage
Visibility10 mi
Wind DirectionNE (43 °)

Weather ElementTotal
Precipitation---
Heating Degree Days8.6 (Base 65)
Growing Degree Days6.5 (Base 50)
Averaged from 23 records on May 4, 2013
WEATHER CONDITIONS BREAKOUT
WIND DIRECTION BREAKOUT
WEATHER BY HOUR - MAY 4, 2013
[ °C ]   °F
Local TimeTemperatureDewpointHumidityBarometerVisibilityWind DirectionWind SpeedGust SpeedPrecipitationEventsConditions
1:52 AM48.0 °F45.0 °F89 %29.99 in10.0 miNNE (30°)3.5 mphPartly Cloudy
2:52 AM46.9 °F44.1 °F90 %29.98 in10.0 miNNE (30°)3.5 mphClear
3:52 AM48.0 °F44.1 °F86 %29.99 in10.0 miCalmPartly Cloudy
4:52 AM48.0 °F44.1 °F86 %29.98 in10.0 miNNE (30°)4.6 mphClear
5:52 AM48.0 °F43.0 °F83 %30.00 in10.0 miNNE (20°)3.5 mphScattered Clouds
6:52 AM48.9 °F43.0 °F80 %30.00 in10.0 miNNE (30°)3.5 mphClear
7:52 AM52.0 °F44.1 °F74 %30.01 in10.0 miNE (50°)3.5 mphMostly Cloudy
8:52 AM55.9 °F46.0 °F69 %30.01 in10.0 miNE (50°)3.5 mphOvercast
9:52 AM60.1 °F46.0 °F60 %30.01 in10.0 miENE (70°)4.6 mphMostly Cloudy
10:52 AM64.0 °F46.9 °F54 %30.02 in10.0 miEast (80°)4.6 mphClear
11:52 AM64.9 °F46.9 °F52 %30.03 in10.0 miEast (80°)9.2 mphClear
12:52 PM64.9 °F46.9 °F52 %30.01 in10.0 miEast (90°)9.2 mphClear
1:52 PM64.0 °F46.9 °F54 %30.01 in10.0 miNE (50°)9.2 mphClear
2:52 PM66.0 °F48.0 °F52 %30.01 in10.0 miENE (70°)10.4 mphClear
3:52 PM66.0 °F46.9 °F50 %30.00 in10.0 miENE (60°)11.5 mph19.6 mphClear
4:52 PM64.0 °F46.0 °F52 %30.00 in10.0 miENE (70°)8.1 mphPartly Cloudy
5:52 PM63.0 °F46.0 °F54 %30.01 in10.0 miNE (50°)8.1 mphClear
6:52 PM57.0 °F44.1 °F62 %30.02 in10.0 miNE (50°)11.5 mphMostly Cloudy
7:52 PM55.0 °F44.1 °F67 %30.03 in10.0 miNE (40°)10.4 mphOvercast
8:52 PM53.1 °F42.1 °F66 %30.06 in10.0 miNE (40°)6.9 mphMostly Cloudy
9:52 PM53.1 °F42.1 °F66 %30.07 in10.0 miCalmOvercast
10:52 PM51.1 °F41.0 °F68 %30.06 in10.0 miCalmClear
11:52 PM51.1 °F42.1 °F71 %30.06 in10.0 miCalmClear
Hourly data recorded from KPWK, located miles away from Chicago, Illinois







STORIES FROM OUR PARTNERS